This demonstration page uses our WeatherBlox Daily Observations layout. Learn more.

Left ArrowRight Arrow

Hourly Observations for February 26, 2015

Temp ( °F °C ) Dew Point ( °F °C ) Humidity (%) Winds ( mph kmh ) Pressure ( in mb ) Visibility ( mi km ) Precip ( " mm )
12:53 am 00:53 Cloudy 25 -3.9 16 -8.9 69 69 N 6 9 29.94 1014 10 16.0934 N/A
1:53 am 01:53 Mostly Clear 23 -5 14 -10 68 68 NNE 8 13 29.94 1014 10 16.0934 N/A
2:53 am 02:53 Clear 22 -5.6 13 -10.6 68 68 N 6 9 29.94 1014 10 16.0934 N/A
3:53 am 03:53 Cloudy 22 -5.6 13 -10.6 68 68 N 7 11 29.94 1014 10 16.0934 N/A
4:53 am 04:53 Cloudy 21 -6.1 12 -11.1 68 68 NNE 7 11 29.94 1014 10 16.0934 N/A
5:53 am 05:53 Cloudy 21 -6.1 10 -12.2 62 62 N 8 13 29.96 1014 10 16.0934 N/A
6:53 am 06:53 Cloudy 20 -6.7 9 -12.8 62 62 N 7 11 29.99 1016 10 16.0934 N/A
7:53 am 07:53 Cloudy 19 -7.2 8 -13.3 62 62 N 9 15 30.01 1016 10 16.0934 N/A
8:53 am 08:53 Cloudy 18 -7.8 8 -13.3 65 65 N 10 17 30.06 1018 10 16.0934 N/A
9:53 am 09:53 Cloudy 19 -7.2 9 -12.8 65 65 N 9 15 30.08 1019 10 16.0934 N/A
10:53 am 10:53 Cloudy 18 -7.8 10 -12.2 71 71 N 12 19 30.1 1019 10 16.0934 N/A
11:53 am 11:53 Cloudy 19 -7.2 11 -11.7 71 71 N 12 19 30.11 1020 10 16.0934 N/A
12:53 pm 12:53 Sunny 20 -6.7 11 -11.7 68 68 N 10 17 30.13 1020 10 16.0934 N/A
1:53 pm 13:53 Partly Cloudy 21 -6.1 11 -11.7 65 65 N 9 15 30.14 1021 10 16.0934 N/A
2:53 pm 14:53 Cloudy 21 -6.1 11 -11.7 65 65 N 13 20 30.14 1021 9 14.48406 N/A
3:53 pm 15:53 Cloudy 20 -6.7 10 -12.2 65 65 NNW 10 17 30.16 1022 10 16.0934 N/A
4:53 pm 16:53 Cloudy 19 -7.2 9 -12.8 65 65 NNW 13 20 30.22 1023 9 14.48406 N/A
5:53 pm 17:53 Cloudy with Haze 17 -8.3 9 -12.8 70 70 NNW 13 20 30.24 1024 5 8.0467 N/A
6:53 pm 18:53 Cloudy 16 -8.9 8 -13.3 71 71 NNW 8 13 30.29 1026 10 16.0934 N/A
7:53 pm 19:53 Cloudy 16 -8.9 8 -13.3 71 71 N 7 11 30.32 1027 10 16.0934 N/A
8:53 pm 20:53 Cloudy 15 -9.4 6 -14.4 67 67 NNW 5 7 30.35 1028 10 16.0934 N/A
9:53 pm 21:53 Cloudy 9 -12.8 3 -16.1 77 77 N N/A 30.38 1029 10 16.0934 N/A
10:53 pm 22:53 Clear 5 -15 1 -17.2 83 83 NNW 5 7 30.4 1029 10 16.0934 N/A
11:53 pm 23:53 Mostly Clear 3 -16.1 -1 -18.3 83 83 N N/A 30.41 1030 10 16.0934 N/A

Powered by AerisWeather